Observations
| Time | Sensor | AQI | SAQ | Temp °C | Hum % | Pres Pa | CO μg/m³ | H₂S μg/m³ | NO μg/m³ | NO₂ μg/m³ | O₃ μg/m³ | SO₂ μg/m³ | CO₂e PPM | VOC PPM | PM1 μg/m³ | PM2.5 μg/m³ | PM4 μg/m³ | PM10 μg/m³ | TPS µm |
|---|---|---|---|---|---|---|---|---|---|---|---|---|---|---|---|---|---|---|---|
| Tuesday 11 August 2026 | |||||||||||||||||||
| 19:57 | Trim Market St | 3 | 28 | 33 | 66,104 | 0 | 8.21 | 0.8 | 25.8 | 60.92 | 0 | 1.43 | 4.79 | 5.27 | |||||
| 19:56 | Trim Patrick St | 3 | 28.7 | 33 | 69,278 | 0 | 33.32 | 0.69 | 49.04 | 49.87 | 19.6 | 3.71 | 10.65 | 11.72 | |||||
| 19:56 | Trim Market St | 3 | 28 | 33 | 66,082 | 0 | 8.05 | 0.8 | 27.36 | 59.68 | 0 | 2.14 | 4.8 | 5.28 | |||||
| 19:55 | Trim Patrick St | 3 | 28.7 | 33 | 69,265 | 0 | 37.17 | 0.68 | 48.69 | 51.12 | 20.38 | 2.86 | 9.06 | 9.96 | |||||
| 19:54 | Trim Patrick St | 3 | 28.7 | 33 | 69,252 | 0 | 38.29 | 0.69 | 50.93 | 47.92 | 20.5 | 2.86 | 9.88 | 10.86 | |||||
| 19:54 | Trim Market St | 3 | 28.1 | 33 | 66,113 | 0 | 8.45 | 0.78 | 25.81 | 59.54 | 0 | 2.85 | 5.34 | 6.68 | |||||
| 19:53 | Trim Patrick St | 3 | 28.8 | 33 | 69,258 | 0 | 40.35 | 0.67 | 53.52 | 48.84 | 20.76 | 5.43 | 11.47 | 12.61 | |||||
| 19:53 | Trim Market St | 3 | 28.1 | 33 | 66,092 | 0 | 9.38 | 0.78 | 28.25 | 61.31 | 0 | 2.14 | 5.89 | 6.68 | |||||
| 19:50 | Trim Patrick St | 3 | 28.9 | 33 | 69,269 | 0 | 36.57 | 0.66 | 42.78 | 55.81 | 20.79 | 3.71 | 9.08 | 9.99 | |||||
| 19:48 | Trim Patrick St | 3 | 29.1 | 32 | 69,269 | 0 | 38.79 | 0.63 | 45.93 | 57.65 | 21.6 | 3.71 | 9.92 | 10.91 | |||||
| 19:48 | Trim Market St | 3 | 28.2 | 32 | 66,113 | 0 | 10.44 | 0.79 | 28.92 | 59.21 | 0 | 2.85 | 5.37 | 5.82 | |||||
| 19:47 | Trim Patrick St | 3 | 29.1 | 32 | 69,254 | 0 | 38.28 | 0.64 | 41.69 | 56.47 | 21.25 | 2.86 | 9.12 | 10.04 | |||||
| 19:46 | Trim Patrick St | 3 | 29.1 | 32 | 69,267 | 0 | 38.6 | 0.66 | 46.08 | 54.11 | 21.09 | 3.71 | 10.74 | 11.81 | |||||
| 19:45 | Trim Patrick St | 3 | 29.2 | 32 | 69,282 | 0 | 37.87 | 0.63 | 34.76 | 66.62 | 21.61 | 4.57 | 10.73 | 11.8 | |||||
| 19:44 | Trim Patrick St | 3 | 29.3 | 32 | 69,300 | 0 | 44.8 | 0.63 | 49.1 | 52.09 | 22.22 | 4.57 | 9.95 | 10.95 | |||||
| 19:43 | Trim Patrick St | 3 | 29.3 | 32 | 69,292 | 0 | 44.19 | 0.62 | 42.62 | 62.62 | 23.22 | 2.86 | 9.15 | 10.07 | |||||
| 19:41 | Trim Market St | 3 | 28.5 | 32 | 66,094 | 0 | 10.97 | 0.75 | 26.57 | 59.42 | 0 | 1.43 | 4.86 | 5.34 | |||||
| 19:40 | Trim Patrick St | 3 | 29.6 | 32 | 69,296 | 0 | 39.9 | 0.57 | 32.53 | 69 | 22.9 | 4.57 | 10.79 | 11.87 | |||||
| 19:39 | Trim Market St | 3 | 28.6 | 32 | 66,147 | 0 | 10.29 | 0.74 | 24.34 | 60.93 | 0 | 2.14 | 4.87 | 5.81 | |||||
| 19:39 | Trim Patrick St | 3 | 29.7 | 31 | 69,312 | 0 | 38.69 | 0.57 | 37.53 | 65.24 | 22.21 | 4.57 | 10.8 | 11.88 | |||||